Regional Weather Roundup
Issued by NWS

Home | Current Version | Previous Version | Text Only | Print | Product List | Glossary On
Versions: 1 2 3 4 5 6 7 8 9 10 11 12 13 14 15 16 17 18 19 20 21 22 23 24 25 26 27 28 29 30 31 32 33 34 35 36 37 38 39 40 41 42 43 44 45 46 47 48 49 50
000
ASUS46 KLOX 070012
RWRCA

SOUTHERN CALIFORNIA WEATHER ROUNDUP
NATIONAL WEATHER SERVICE OXNARD CALIFORNIA
400 PM PST FRI MAR 06 2015

NOTE: "FAIR" INDICATES FEW OR NO CLOUDS BELOW 12,000 FEET WITH NO
SIGNIFICANT WEATHER AND/OR OBSTRUCTIONS TO VISIBILITY.

  -  STATIONS PRECEEDED BY AN ASTERISK (*) ARE NOT NWS OR FAA
     STATIONS AND ARE NOT SUBJECT TO NWS AND FAA QUALITY CONTROL.

CAZ041-042-087-070100-
LA AND ORANGE COUNTY COASTAL AREAS


CITY           SKY/WX    TMP DP  RH WIND       PRES   REMARKS
L.A. DOWNTOWN  SUNNY     78  34  20 VRB3      29.99F
L.A. AIRPORT   SUNNY     74  37  26 SW9       30.00F
LONG BEACH     SUNNY     83  23  11 NW12      29.98F

CITY           SKY/WX    TMP DP  RH WIND       PRES   REMARKS
AVALON           N/A     82 N/A N/A MISG        N/A
FULLERTON      SUNNY     86  11   6 NW7       29.96F
*GETTY CENTER    N/A     77  32  19 S5          N/A
HAWTHORNE      SUNNY     77  29  17 W9        30.00F
*LEO CARRILLO    N/A     86  18   8 S7G23       N/A
*LOS ALAMITOS  SUNNY     85  20   9 W13       29.97F
*REDONDO BEACH   N/A     76  35  21 W3        30.01F
SANTA ANA      SUNNY     88   7   5 NE12      29.97F
STA MONICA APT SUNNY     74  44  34 S6        30.00F
*STA MON PIER    N/A     68  56  64 SW1       29.99F
TORRANCE       SUNNY     79  43  27 NW9       30.00F
*UCLA            N/A     77  32  19 SW2       29.98S

$$

CAZ547-548-048-070100-
LA COUNTY VALLEYS AND INLAND EMPIRE


CITY           SKY/WX    TMP DP  RH WIND       PRES   REMARKS
BURBANK        SUNNY     83  15   8 NE14      30.00F
VAN NUYS       SUNNY     81  21  11 NE15G29   30.01F

CITY           SKY/WX    TMP DP  RH WIND       PRES   REMARKS
CORONA AIRPORT CLEAR     82   7   6 NE18G28   30.00F
*CHATSWORTH      N/A     79  24  13 N7        30.01F
CHINO          SUNNY     82  17   9 NE8G22    30.00F
*CLAREMONT       N/A     83  21  10 W2          N/A
MARCH AFB      SUNNY     78   9   7 NE10      30.03F
*NORTHRIDGE      N/A     81  14   8 VRB6G15     N/A
ONTARIO        SUNNY     80  11   7 NE15G26   30.00F
*PASADENA        N/A     82  30  15 E5          N/A
RIVERSIDE      SUNNY     82   7   6 N10G22    30.01F
SAN BERNARDINO SUNNY    N/A N/A N/A CALM      30.02F
*SAN GABRIEL     N/A     83  15   8 CALM      29.93F
*SAN RAFAEL HI   N/A     83   0   4 W6          N/A
*SAUGUS          N/A     73  17  12 NE22G38     N/A
*WHITEMAN AP   SUNNY     79  16   9 NE14G25   30.05F
*WHITTIER HILL   N/A     87  16   7 SW3G22      N/A
*WOODLAND HILL   N/A     81  18   9 N15         N/A

$$

CAZ054-055-070100-
LA AND SAN BERNARDINO COUNTY MOUNTAINS


CITY           SKY/WX    TMP DP  RH WIND       PRES   REMARKS
*ACTON           N/A     71  14  11 NE15G30     N/A
*BIG BEAR AIRP CLEAR     46   0  14 NE13      30.27S
*BIG PINES       N/A     49   9  19 SE7G18      N/A
MT WILSON NWS    N/A     63  12  14 NW1         N/A
SANDBERG       SUNNY     64  12  13 E26G36    30.19F
*WARM SPRINGS    N/A     62  15  16 NE24G41     N/A

$$

CAZ028-029-059-060-099-070100-
ANTELOPE VALLEY AND SURROUNDING AREAS


CITY           SKY/WX    TMP DP  RH WIND       PRES   REMARKS
LANCASTER      SUNNY     71  14  11 E20G28    30.14F
PALMDALE       SUNNY     71  15  11 E15       30.15F
*POPPY PARK      N/A     73  19  13 E15         N/A

CITY           SKY/WX    TMP DP  RH WIND       PRES   REMARKS
29 PALMS       SUNNY     72  17  12 N7        30.18F
BARSTOW/DAGGET SUNNY     75  11   8 NE7       30.14F
BISHOP         SUNNY     71  -2   5 CALM      30.21F
MOJAVE         FAIR      70  19  14 NE14      30.17F
NEEDLES        SUNNY     78  17  10 N20       30.06F
VICTORVILLE    MOSUNNY   70  12  11 E15       30.17F

$$

CAZ039-040-070100-
VENTURA AND SANTA BARBARA COUNTY COAST


CITY           SKY/WX    TMP DP  RH WIND       PRES   REMARKS
CAMARILLO      SUNNY     84  18   8 NE9       30.02F
OXNARD AIRPORT SUNNY     75  30  19 NW15      30.02F
*POINT MUGU    SUNNY     77  28  16 NW14G24   30.03F
SBA APT/GOLETA SUNNY     73  32  22 W7        30.03F
*SANTA BARBARA   N/A     82  25  12 CALM      30.10F
*VENTURA         N/A     83  32  16 SW3       30.05F

$$

CAZ044-045-070100-
VENTURA COUNTY VALLEYS


CITY           SKY/WX    TMP DP  RH WIND       PRES   REMARKS
*SIMI VALLEY     N/A     78  25  14 N15       29.98F
*OJAI            N/A     81  35  19 CALM      30.00S
*FILLMORE        N/A     82  38  21 E2        29.92F

$$

CAZ053-070100-
VENTURA COUNTY MOUNTAINS


CITY           SKY/WX    TMP DP  RH WIND       PRES   REMARKS
*LOCKWOOD VLY    N/A     59  18  20 MISG        N/A
*ROSE VALLEY     N/A     70  19  14 MISG        N/A

$$

CAZ034-035-036-070100-
CENTRAL COAST AND SANTA YNEZ VALLEY


CITY           SKY/WX    TMP DP  RH WIND       PRES   REMARKS
SAN LUIS OBISP SUNNY     81  27  14 N8        30.07F
SANTA MARIA    SUNNY     85  16   7 N14       30.05F

CITY           SKY/WX    TMP DP  RH WIND       PRES   REMARKS
*CAL POLY SLO    N/A     79  39  24 NW12G25     N/A
*LOMPOC        SUNNY     81  37  21 NW16      30.04F
*PISMO BEACH     N/A     82  33  17 W1        30.06S
*SANTA YNEZ    FAIR      82  19   9 NE10G18   30.02F

$$

CAZ037-038-051-070100-
SAN LUIS OBISPO COUNTY INTERIOR AND CUYAMA VALLEY


CITY           SKY/WX    TMP DP  RH WIND       PRES   REMARKS
*CUYAMA          N/A     64  39  38 SE3       30.14F
PASO ROBLES    SUNNY     74  33  22 E12       30.13F

$$

CAZ032-033-061-070100-
SOUTHERN DESERTS


CITY           SKY/WX    TMP DP  RH WIND       PRES   REMARKS
BLYTHE         SUNNY     81  14   8 N14G21    30.00F
IMPERIAL       SUNNY     82  20  10 NE12      29.98F
PALM SPRINGS   SUNNY     83   7   5 N7        30.04F
THERMAL        SUNNY     85   5   5 NE8       29.99F

$$

ELSEWHERE ACROSS THE WESTERN UNITED STATES AND MEXICO


CITY           SKY/WX    TMP DP  RH WIND       PRES   REMARKS
DENVER, CO     CLEAR     45  27  49 SE8       30.22S
GRAND CANYON,  SUNNY     46  22  38 NE18      30.32S
HONOLULU, HI   MOSUNNY   75  57  53 NE15G22   29.89F
KAHULUI, MAUI  MOSUNNY   72  64  78 NE17G25   29.91F
LAKE TAHOE, CA SUNNY     56  16  20 VRB3      30.33S
LAS VEGAS, NV  SUNNY     72  14  11 E10       30.14F
MAMMOTH LAKES, FAIR      59   1  10 SE8       30.33F
MEXICO CITY, M MOCLDY    72  43  35 E9G22     30.27R
PHOENIX, AZ    SUNNY     82   8   6 SE13      29.97F
PORTLAND, OR   CLOUDY    65  36  34 W7        30.33F
RENO, NV       MOSUNNY   64   5   9 E8        30.30F
SALT LAKE CITY MOSUNNY   53  24  32 N10       30.38F
SAN DIEGO, CA  SUNNY     76  34  21 NW12      29.99S
SAN FRANCISCO, MOSUNNY   68  42  38 W17       30.18S
SAN JOSE, CA   SUNNY     70  44  39 NW10      30.16F
SEATTLE, WA    PTSUNNY   58  37  45 NW7       30.37F
TIJUANA, MEX   SUNNY     72  41  33 SW12      30.00F

$$

STATION/POSITION TIME  TEMP    WIND        PRES    VSBY  WAVE
                       AIR SEA DIR/SP/G                  HT/PER
                 (UTC) (F)     (DEG/KT/KT) (MB)    (MI)  (FT/S)
POINT ARGUELLO B NOT AVBL
WEST SANTA BARBA 0000   63 60  290/ 12/ 16 1016.9F         3/15
POINT CONCEPTION NOT AVBL
EAST SANTA BARBA NOT AVBL
SANTA MONICA BAY 0000   66 62  320/ 16/ 19 1016.5F         2/15


USA.gov is the U.S. government's official web portal to all federal, state and local government web resources and services.